Fremont, MI

4:12 PM EDT on October 16, 2019 (GMT -0400)
Fremont

Weather History for KFFX - May, 2019

Change the Weather History Date:

Wednesday, May 8, 2019

  Actual Average (KMKG) Record (KMKG)
Temperature  
Mean Temperature 50 °F -  
Max Temperature 58 °F 65 °F 84 °F (1993)
Min Temperature 41 °F 43 °F 27 °F (1976)
Degree Days  
Heating Degree Days 16    
Moisture  
Dew Point 31 °F    
Average Humidity 48    
Maximum Humidity 66    
Minimum Humidity 31    
Precipitation  
Precipitation 0.00 in - - ()
Sea Level Pressure  
Sea Level Pressure 30.14 in    
Wind  
Wind Speed 10 mph (East)    
Max Wind Speed 21 mph    
Max Gust Speed 32 mph    
Visibility 10 miles    
Events Rain    
Averages and records for this station are not official NWS values.
T = Trace of Precipitation, MM = Missing Value Source: NWS Daily Summary

Daily Weather History Graph

Daily Weather History Graph

Search for Another Location

Airport or City:

Astronomy

May. 08, 2019 Rise Set
Actual Time 6:27 AM EDT 8:53 PM EDT
Civil Twilight 5:55 AM EDT 9:26 PM EDT
Nautical Twilight 5:15 AM EDT 10:06 PM EDT
Astronomical Twilight 4:31 AM EDT 10:51 PM EDT
Moon 9:21 AM EDT (5/8) No Moon Set
Length of Visible Light 15h 30m
Length of Day
14h 25m
Waxing Crescent, 15% of the Moon is Illuminated
May 8
Waxing Crescent
May 11
First Quarter
May 18
Full
May 26
Last Quarter
Jun 3
New

Hourly Weather History & Observations

Time (EDT) Temp. Windchill Dew Point Humidity Pressure Visibility Wind Dir Wind Speed Gust Speed Precip Events Conditions
12:15 AM 47.8 °F - 33.6 °F 58% 30.27 in 10.0 mi East 8.1 mph - N/A   Clear
12:36 AM 48.4 °F - 34.3 °F 58% 30.28 in 10.0 mi East 5.8 mph - N/A   Clear
12:55 AM 48.2 °F - 35.1 °F 60% 30.28 in 10.0 mi East 8.1 mph - N/A   Clear
1:15 AM 47.8 °F - 33.8 °F 58% 30.28 in 10.0 mi East 8.1 mph - N/A   Clear
1:36 AM 46.9 °F - 33.8 °F 60% 30.28 in 10.0 mi East 8.1 mph - N/A   Clear
1:55 AM 46.0 °F 40.6 °F 33.1 °F 61% 30.27 in 10.0 mi East 11.5 mph 18.4 mph N/A   Clear
2:15 AM 45.1 °F 39.9 °F 32.7 °F 62% 30.26 in 10.0 mi East 10.4 mph - N/A   Clear
2:35 AM 44.6 °F 38.8 °F 32.0 °F 61% 30.27 in 10.0 mi East 11.5 mph - N/A   Clear
2:56 AM 44.1 °F 40.8 °F 32.0 °F 63% 30.26 in 10.0 mi East 5.8 mph - N/A   Clear
3:15 AM 43.5 °F 40.9 °F 32.0 °F 64% 30.26 in 10.0 mi East 4.6 mph - N/A   Clear
3:36 AM 43.0 °F 39.5 °F 31.8 °F 65% 30.26 in 10.0 mi East 5.8 mph - N/A   Clear
3:55 AM 42.8 °F 39.3 °F 31.5 °F 64% 30.26 in 10.0 mi East 5.8 mph - N/A   Clear
4:16 AM 42.3 °F 39.4 °F 31.3 °F 65% 30.26 in 10.0 mi East 4.6 mph - N/A   Clear
4:36 AM 41.9 °F 37.5 °F 31.1 °F 66% 30.26 in 10.0 mi East 6.9 mph - N/A   Clear
4:55 AM 41.9 °F 39.0 °F 30.7 °F 65% 30.28 in 10.0 mi East 4.6 mph - N/A   Clear
5:16 AM 41.9 °F 37.5 °F 30.9 °F 65% 30.28 in 10.0 mi East 6.9 mph - N/A   Clear
5:35 AM 41.9 °F 36.9 °F 30.4 °F 64% 30.28 in 10.0 mi East 8.1 mph - N/A   Clear
5:55 AM 41.9 °F 36.9 °F 29.8 °F 62% 30.28 in 10.0 mi East 8.1 mph - N/A   Clear
6:16 AM 42.1 °F 37.1 °F 30.2 °F 63% 30.28 in 10.0 mi East 8.1 mph - N/A   Clear
6:35 AM 41.7 °F 36.7 °F 31.1 °F 66% 30.28 in 10.0 mi East 8.1 mph - N/A   Clear
6:56 AM 41.9 °F 35.9 °F 30.2 °F 63% 30.28 in 10.0 mi East 10.4 mph - N/A   Clear
7:16 AM 42.3 °F 35.5 °F 29.8 °F 61% 30.28 in 10.0 mi East 12.7 mph 18.4 mph N/A   Clear
7:35 AM 42.8 °F 36.6 °F 30.7 °F 62% 30.28 in 10.0 mi East 11.5 mph 17.3 mph N/A   Clear
7:56 AM 43.7 °F 37.3 °F 30.2 °F 59% 30.29 in 10.0 mi East 12.7 mph 21.9 mph N/A   Clear
8:16 AM 44.6 °F 38.4 °F 30.6 °F 58% 30.28 in 10.0 mi East 12.7 mph 19.6 mph N/A   Clear
8:35 AM 44.8 °F 39.0 °F 29.5 °F 55% 30.28 in 10.0 mi East 11.5 mph 20.7 mph N/A   Clear
8:55 AM 46.0 °F 41.4 °F 27.7 °F 49% 30.27 in 10.0 mi East 9.2 mph 17.3 mph N/A   Clear
9:15 AM 47.3 °F - 26.8 °F 45% 30.27 in 10.0 mi East 12.7 mph 19.6 mph N/A   Clear
9:36 AM 49.1 °F - 25.3 °F 40% 30.25 in 10.0 mi ESE 11.5 mph 20.7 mph N/A   Clear
9:55 AM 49.6 °F - 25.9 °F 40% 30.25 in 10.0 mi ESE 15.0 mph 20.7 mph N/A   Clear
10:15 AM 49.5 °F - 25.2 °F 39% 30.24 in 10.0 mi East 13.8 mph 21.9 mph N/A   Scattered Clouds
10:36 AM 51.1 °F - 24.6 °F 36% 30.23 in 10.0 mi East 11.5 mph 18.4 mph N/A   Mostly Cloudy
10:55 AM 51.6 °F - 24.3 °F 34% 30.23 in 10.0 mi ESE 13.8 mph 18.4 mph N/A   Mostly Cloudy
11:16 AM 51.8 °F - 24.3 °F 34% 30.21 in 10.0 mi East 11.5 mph 17.3 mph N/A   Overcast
11:35 AM 51.8 °F - 21.9 °F 31% 30.21 in 10.0 mi East 11.5 mph 18.4 mph N/A   Overcast
11:55 AM 52.2 °F - 24.4 °F 34% 30.20 in 10.0 mi East 8.1 mph - N/A   Overcast
12:16 PM 52.5 °F - 24.4 °F 34% 30.20 in 10.0 mi East 8.1 mph 19.6 mph N/A   Overcast
12:35 PM 52.5 °F - 28.0 °F 39% 30.19 in 10.0 mi East 9.2 mph 18.4 mph N/A   Light Drizzle
12:55 PM 52.7 °F - 28.4 °F 39% 30.19 in 10.0 mi East 11.5 mph 17.3 mph N/A   Light Drizzle
1:16 PM 53.8 °F - 28.8 °F 38% 30.17 in 10.0 mi East 15.0 mph 21.9 mph N/A   Overcast
1:36 PM 53.6 °F - 28.6 °F 38% 30.16 in 10.0 mi East 9.2 mph 17.3 mph N/A   Light Drizzle
1:55 PM 54.5 °F - 26.4 °F 34% 30.15 in 10.0 mi East 12.7 mph 20.7 mph N/A   Overcast
2:15 PM 54.0 °F - 29.5 °F 39% 30.15 in 10.0 mi East 15.0 mph 20.7 mph N/A Rain Light Rain
2:36 PM 54.5 °F - 30.6 °F 40% 30.14 in 10.0 mi East 9.2 mph 21.9 mph N/A   Overcast
2:55 PM 54.5 °F - 31.1 °F 41% 30.12 in 10.0 mi East 13.8 mph 23.0 mph N/A   Overcast
3:15 PM 54.9 °F - 31.6 °F 41% 30.11 in 10.0 mi East 15.0 mph 24.2 mph N/A   Overcast
3:36 PM 55.4 °F - 32.0 °F 41% 30.10 in 10.0 mi East 11.5 mph 18.4 mph N/A   Overcast
3:55 PM 54.7 °F - 32.7 °F 43% 30.09 in 10.0 mi East 12.7 mph 18.4 mph N/A Rain Light Rain
4:15 PM 55.6 °F - 31.3 °F 40% 30.08 in 10.0 mi East 12.7 mph 19.6 mph N/A   Overcast
4:36 PM 55.9 °F - 31.1 °F 39% 30.06 in 10.0 mi ESE 12.7 mph 21.9 mph N/A   Overcast
4:55 PM 56.5 °F - 32.0 °F 39% 30.05 in 10.0 mi East 12.7 mph 25.3 mph N/A   Overcast
5:15 PM 57.0 °F - 32.4 °F 39% 30.03 in 10.0 mi ESE 15.0 mph 25.3 mph N/A   Overcast
5:36 PM 57.2 °F - 32.0 °F 38% 30.01 in 10.0 mi East 16.1 mph 29.9 mph N/A   Scattered Clouds
5:56 PM 57.7 °F - 32.4 °F 38% 30.01 in 10.0 mi ESE 17.3 mph 29.9 mph N/A   Mostly Cloudy
6:15 PM 58.1 °F - 32.2 °F 38% 30.00 in 10.0 mi ESE 20.7 mph 29.9 mph N/A   Overcast
6:36 PM 58.3 °F - 32.0 °F 37% 29.98 in 10.0 mi ESE 16.1 mph 29.9 mph N/A   Mostly Cloudy
6:56 PM 58.5 °F - 32.7 °F 38% 29.97 in 10.0 mi ESE 16.1 mph 32.2 mph N/A   Scattered Clouds
7:15 PM 58.1 °F - 33.8 °F 40% 29.97 in 10.0 mi ESE 15.0 mph 29.9 mph N/A   Mostly Cloudy
7:35 PM 57.7 °F - 34.2 °F 41% 29.96 in 10.0 mi ESE 19.6 mph 27.6 mph N/A   Overcast
7:56 PM 57.6 °F - 34.2 °F 41% 29.94 in 10.0 mi ESE 13.8 mph 31.1 mph N/A   Scattered Clouds
8:16 PM 57.4 °F - 34.2 °F 42% 29.93 in 10.0 mi ESE 17.3 mph 31.1 mph N/A   Scattered Clouds
8:35 PM 56.8 °F - 35.4 °F 45% 29.93 in 10.0 mi ESE 17.3 mph 26.5 mph N/A   Scattered Clouds
8:56 PM 55.8 °F - 36.5 °F 48% 29.93 in 10.0 mi ESE 15.0 mph 31.1 mph N/A   Clear
9:16 PM 54.9 °F - 36.5 °F 50% 29.93 in 10.0 mi ESE 17.3 mph 24.2 mph N/A   Clear
9:35 PM 54.5 °F - 35.6 °F 49% 29.93 in 10.0 mi ESE 13.8 mph 31.1 mph N/A   Clear
9:55 PM 54.0 °F - 35.1 °F 49% 29.92 in 10.0 mi ESE 16.1 mph 25.3 mph N/A   Clear
10:16 PM 54.0 °F - 34.7 °F 48% 29.92 in 10.0 mi ESE 15.0 mph 25.3 mph N/A   Clear
10:35 PM 53.6 °F - 34.3 °F 48% 29.91 in 10.0 mi ESE 17.3 mph 24.2 mph N/A   Scattered Clouds
10:55 PM 53.6 °F - 33.8 °F 47% 29.89 in 10.0 mi ESE 16.1 mph 25.3 mph N/A   Mostly Cloudy
11:15 PM 53.6 °F - 33.4 °F 46% 29.89 in 10.0 mi ESE 20.7 mph 31.1 mph N/A   Mostly Cloudy
11:36 PM 53.6 °F - 33.8 °F 47% 29.87 in 10.0 mi ESE 19.6 mph 27.6 mph N/A   Scattered Clouds
11:56 PM 53.6 °F - 34.2 °F 48% 29.86 in 10.0 mi ESE 20.7 mph 27.6 mph N/A   Mostly Cloudy